Location: Banksville Park
(38.5557°N, 75.1182°W)
Time: 22:14:30
(UTC+00:00)

Cosmos 1459 Rocket - Pass Details

Date: 19 September 2020
Orbit: 936 x 1001 km, 83.0° (Epoch: 30 October)

Event Time Altitude Azimuth Distance (km) Brightness Sun altitude
Rises 09:36:09 0° 355° (N) 3,629 7.1 -14.3°
Reaches altitude 10° 09:38:40 10° 357° (N) 2,673 6.4 -13.9°
Maximum altitude 09:44:46 73° 82° (E) 983 4.2 -12.7°
Drops below altitude 10° 09:50:46 10° 167° (SSE) 2,638 6.3 -11.5°
Sets 09:53:14 0° 169° (S) 3,578 7.0 -11.1°
